Location: Los Gatos B&B
(42.6926°N, 77.0646°W)
Time: 15:47:14
(UTC-05:00)

Cosmos 2263 Rocket - Visible Passes

Search period start: 28 February 2015 00:00
Search period end: 10 March 2015 01:00
Orbit: 823 x 850 km, 71.0° (Epoch: 26 February)

Date Brightness Start Highest point End Pass type
(mag) Time Alt. Az. Time Alt. Az. Time Alt. Az.
28 Feb 4.5 04:02:10 10° SE 04:06:06 20° ESE 04:10:15 10° NE visible
28 Feb 2.3 05:44:00 10° SW 05:49:37 60° WNW 05:55:16 10° NNE visible
01 Mar 4.6 03:45:49 10° SE 03:49:30 19° E 03:53:25 10° ENE visible
01 Mar 2.2 05:27:19 10° SW 05:32:58 65° WNW 05:38:39 10° NNE visible
02 Mar 4.6 03:29:32 10° SE 03:32:54 17° E 03:36:34 10° ENE visible
02 Mar 2.1 05:11:19 14° SSW 05:16:18 70° WNW 05:22:01 10° NNE visible
03 Mar 4.6 03:14:22 13° ESE 03:16:18 16° E 03:19:41 10° ENE visible
03 Mar 2.1 04:56:07 24° SSW 04:59:39 76° WNW 05:05:23 10° NNE visible
04 Mar 4.7 02:58:56 14° ESE 02:59:43 14° E 03:02:45 10° ENE visible
04 Mar 2.1 04:40:41 38° SSW 04:43:00 81° WNW 04:48:45 10° NNE visible
05 Mar 4.8 02:43:21 13° E 02:43:21 13° E 02:45:44 10° ENE visible
05 Mar 2.1 04:25:06 56° SSW 04:26:21 87° WNW 04:32:06 10° NNE visible
05 Mar 3.8 06:07:40 10° W 06:11:15 16° NW 06:14:39 10° N visible
06 Mar 4.9 02:27:38 11° E 02:27:38 11° E 02:28:35 10° ENE visible
06 Mar 2.1 04:09:22 79° S 04:09:43 86° ESE 04:15:28 10° NNE visible
06 Mar 3.8 05:51:06 11° W 05:54:31 17° NW 05:58:08 10° N visible
07 Mar 2.3 03:53:32 74° ENE 03:53:32 74° ENE 03:58:49 10° NNE visible
07 Mar 3.7 05:35:15 14° WNW 05:37:48 18° NW 05:41:37 10° N visible
08 Mar 2.7 04:37:37 56° NE 04:37:37 56° NE 04:42:09 10° NNE visible
08 Mar 3.6 06:19:20 18° WNW 06:21:05 20° NW 06:25:06 10° N visible
09 Mar 3.2 04:21:38 43° NE 04:21:38 43° NE 04:25:29 10° NNE visible
09 Mar 3.5 06:03:20 20° WNW 06:04:22 21° NW 06:08:33 10° N visible
